[[{"header":{"parameterUnit":"m.s-1","parameterCategory":1,"la1":30.2991,"la2":30.254,"lo1":-89.0895,"lo2":-89.0444,"dx":0.0017,"dy":0.0017,"nx":28,"ny":28,"refTime":"2022-12-13T09:00:00:Z","depth":0,"parameterNumber":2,"parameterNumberName":"U-component_of_WINDS"},"data":[0,0,0,0,0,0,0,0,0,0,0,0,0,0,0,0,0,0,0,0,0,0,0,0,0,0,0,0,0,0,0,0,0,0,0,0,0,0,0,0,0,0,0,0,0,0,0,0,0,0,0,0,0,0,0,0,0,0,-5.7841,-5.7842,0,-5.7941,-5.7942,-5.7943,-5.7925,-5.7923,-5.7921,-5.7919,-5.8018,-5.8023,-5.8027,0,0,0,0,0,0,0,0,0,0,0,0,0,-5.7633,-5.7637,-5.7841,-5.7842,-5.7844,-5.7941,-5.7942,-5.7944,-5.7925,-5.7923,-5.792,-5.7918,-5.8017,-5.8022,-5.8027,0,0,0,0,0,0,0,0,0,0,0,0,0,-5.7727,-5.7638,-5.7841,-5.7846,-5.7848,-5.7941,-5.7942,-5.7944,-5.7925,-5.7923,-5.792,-5.7917,-5.8015,-5.8022,-5.8028,-5.8121,0,0,-5.8048,-5.8051,0,0,0,0,0,0,0,0,-5.7722,-5.7735,-5.7844,-5.7846,-5.7848,-5.7918,-5.7905,-5.8003,-5.7926,-5.7896,-5.7919,-5.7916,-5.7987,-5.7996,-5.802,-5.8126,-5.813,-5.8048,-5.8052,-5.8055,-5.8057,0,0,0,0,0,0,0,-5.7715,-5.773,-5.7881,-5.7846,-5.7848,-5.7843,-5.7853,-5.7924,-5.7955,-5.7898,-5.7897,-5.7909,-5.7987,-5.8014,-5.8022,-5.8132,-5.8048,-5.8054,-5.8058,-5.806,-5.832,-5.8323,0,0,0,0,0,0,-5.7707,-5.7725,-5.7877,-5.7884,-5.7777,-5.7849,-5.7861,-5.7898,-5.7954,-5.796,-5.7911,-5.7908,-5.8004,-5.8015,-5.8026,-5.8138,-5.8055,-5.8061,-5.8065,-5.8317,-5.8321,-5.8324,0,0,0,0,0,0,-5.7703,-5.7721,-5.7873,-5.7804,-5.7823,-5.7855,-5.7897,-5.7901,-5.7928,-5.7964,-5.7969,-5.7933,-5.8002,-5.8017,-5.8098,-5.8141,-5.8064,-5.807,-5.8314,-5.8318,-5.8322,-5.8364,0,0,0,0,0,0,-5.7697,-5.772,-5.7755,-5.7805,-5.7827,-5.7944,-5.79,-5.7905,-5.7939,-5.7936,-5.7986,-5.7991,-5.8001,-5.8089,-5.8104,-5.8149,-5.8075,-5.831,-5.8316,-5.8321,-5.8359,-5.837,-5.8379,0,0,0,0,0,-5.769,-5.7762,-5.7757,-5.7776,-5.7872,-5.7947,-5.7959,-5.797,-5.7943,-5.7979,-5.8003,-5.799,-5.8135,-5.8097,-5.8115,-5.8162,-5.8307,-5.8314,-5.8321,-5.8355,-5.8368,-5.8379,0,0,0,0,0,0,-5.7715,-5.7769,-5.7764,-5.7855,-5.7897,-5.7944,-5.7989,-5.7984,-5.8033,-5.8027,-5.8038,-5.805,-5.8133,-5.8156,-5.8113,-5.8256,-5.8217,-5.8228,-5.8237,-5.825,-5.8259,-5.8251,-5.808,0,0,0,0,0,-5.7731,-5.7788,-5.7832,-5.7908,-5.793,-5.7956,-5.7989,-5.7994,-5.8038,-5.8055,-5.8084,-5.8126,-5.8181,-5.8217,-5.827,-5.8364,-5.8374,-5.8405,-5.8415,-5.8423,-5.8431,-5.8483,-5.8497,-5.8346,-5.8346,-5.8346,0,0,-5.7765,-5.7802,-5.7836,-5.7914,-5.7947,-5.8005,-5.7971,-5.8033,-5.8076,-5.8064,-5.8142,-5.8167,-5.8214,-5.8302,-5.8343,-5.8324,-5.8476,-5.8432,-5.8438,-5.8441,-5.8491,-5.8505,-5.8518,-5.8351,-5.835,-5.8349,0,0,-5.7856,-5.789,-5.7957,-5.7992,-5.8043,-5.8061,-5.8077,-5.8126,-5.8142,-5.8222,-5.8214,-5.8266,-5.836,-5.8394,-5.8424,-5.8532,-5.8522,-5.855,-5.8599,-5.865,-5.8661,-5.8672,-5.8709,-5.8723,-5.8558,-5.8558,-5.8558,0,-5.789,-5.7978,-5.7992,-5.8056,-5.8091,-5.8085,-5.8153,-5.8186,-5.8251,-5.8275,-5.8254,-5.8374,-5.8405,-5.8501,-5.8528,-5.8553,-5.8571,-5.8542,-5.8659,-5.867,-5.868,-5.8715,-5.8729,-5.8561,-5.8561,-5.8561,-5.856,0,-5.8019,-5.808,-5.8128,-5.8193,-5.8234,-5.8299,-5.8323,-5.8362,-5.8365,-5.8385,-5.8467,-5.8505,-5.8566,-5.859,-5.8593,-5.8687,-5.8674,-5.8656,-5.8617,-5.8696,-5.873,-5.8744,-5.8565,-5.8564,-5.8563,-5.8563,0,0,-5.8124,-5.8199,-5.8216,-5.8246,-5.8304,-5.8351,-5.8417,-5.8478,-5.8511,-5.8558,-5.8613,-5.8695,-5.868,-5.8714,-5.8721,-5.8765,-5.8848,-5.8742,-5.8743,-5.8759,-5.8953,-5.8965,-5.898,-5.8843,-5.8846,-5.8848,-5.8949,0,-5.8218,-5.8336,-5.8352,-5.8455,-5.8512,-5.8509,-5.8567,-5.8609,-5.863,-5.8681,-5.8705,-5.8762,-5.8738,-5.8759,-5.8803,-5.8828,-5.8886,-5.8822,-5.8893,-5.8895,-5.8878,-5.8998,-5.901,-5.9103,-5.8962,-5.8965,-5.8966,0,-5.8343,-5.8395,-5.8505,-5.8557,-5.8582,-5.8633,-5.8691,-5.874,-5.8788,-5.8801,-5.8841,-5.8843,-5.8912,-5.8873,-5.8966,-5.8922,-5.8953,-5.897,-5.8974,-5.8978,-5.8933,-5.9004,-5.9133,-5.9146,-5.8987,-5.8986,-5.8984,0,-5.8407,-5.8505,-5.8583,-5.8609,-5.8672,-5.8709,-5.8736,-5.8782,-5.8818,-5.8869,-5.8893,-5.8951,-5.8982,-5.9027,-5.9045,-5.9015,-5.9138,-5.91,-5.9149,-5.9149,-5.9172,-5.917,-5.9306,-5.9196,-5.9196,-5.9196,-5.9196,0,-5.851,-5.8576,-5.8613,-5.8661,-5.8736,-5.8755,-5.8828,-5.8855,-5.8896,-5.8948,-5.895,-5.9,-5.9022,-5.9075,-5.909,-5.9165,-5.918,-5.9191,-5.9193,-5.9189,-5.9187,-5.9207,-5.92,-5.92,-5.9199,-5.9198,-5.9197,0,-5.8592,-5.8619,-5.8704,-5.8758,-5.8774,-5.8827,-5.8872,-5.8919,-5.8942,-5.9008,-5.9025,-5.906,-5.9123,-5.9147,-5.9222,-5.9233,-5.9319,-5.9318,-5.9303,-5.9303,-5.935,-5.9344,-5.9501,-5.9522,-5.9401,-5.9402,-5.9403,0,-5.8654,-5.8705,-5.8766,-5.8802,-5.8832,-5.889,-5.8928,-5.8949,-5.8988,-5.9049,-5.9088,-5.9151,-5.9202,-5.9302,-5.9334,-5.9392,-5.9391,-5.9442,-5.9399,-5.9394,-5.9389,-5.9385,-5.939,-5.9448,-5.945,-5.9451,-5.9451,0,-5.876,-5.8772,-5.8827,-5.8888,-5.8934,-5.8982,-5.9029,-5.9058,-5.9087,-5.9131,-5.9196,-5.9236,-5.9315,-5.9377,-5.9438,-5.9466,-5.9463,-5.9466,-5.948,-5.9474,-5.9462,-5.9468,-5.9322,-5.9461,-5.946,-5.9459,-5.9459,-5.9458,-5.8833,-5.8879,-5.8929,-5.8991,-5.903,-5.9074,-5.9121,-5.9151,-5.9206,-5.9272,-5.9282,-5.9351,-5.94,-5.9482,-5.9513,-5.9567,-5.9553,-5.9574,-5.9579,-5.9583,-5.9585,-5.9457,-5.9579,-5.9578,-5.9578,-5.9578,-5.9578,0,-5.8938,-5.8971,-5.9028,-5.9095,-5.9144,-5.9141,-5.9193,-5.9234,-5.9295,-5.9341,-5.9393,-5.9468,-5.9529,-5.9567,-5.9629,-5.9665,-5.9665,-5.968,-5.9676,-5.9683,-5.9595,-5.9576,-5.9679,-5.9679,-5.9679,-5.9679,-5.9679,-5.9679,-5.8998,-5.9076,-5.9094,-5.9192,-5.9224,-5.9293,-5.9324,-5.9365,-5.9402,-5.9486,-5.9538,-5.9564,-5.9607,-5.9672,-5.9728,-5.9738,-5.9759,-5.9775,-5.9783,-5.9699,-5.9689,-5.9679,-5.966,-5.978,-5.978,-5.9866,-5.9867,-5.9867]},{"header":{"parameterUnit":"m.s-1","parameterCategory":1,"la1":30.2991,"la2":30.254,"lo1":-89.0895,"lo2":-89.0444,"dx":0.0017,"dy":0.0017,"nx":28,"ny":28,"refTime":"2022-12-13T09:00:00:Z","depth":0,"parameterNumber":3,"parameterNumberName":"V-component_of_WINDS"},"data":[0,0,0,0,0,0,0,0,0,0,0,0,0,0,0,0,0,0,0,0,0,0,0,0,0,0,0,0,0,0,0,0,0,0,0,0,0,0,0,0,0,0,0,0,0,0,0,0,0,0,0,0,0,0,0,0,0,0,1.996,1.996,0,1.9968,1.9968,1.9968,2.0004,2.0005,2.0005,2.0006,2.0007,2.0006,2.0006,0,0,0,0,0,0,0,0,0,0,0,0,0,1.9973,1.9972,1.996,1.996,1.996,1.9968,1.9968,1.9968,2.0003,2.0005,2.0006,2.0007,2.0007,2.0006,2.0005,0,0,0,0,0,0,0,0,0,0,0,0,0,1.9972,1.9972,1.996,1.9979,1.9981,1.9968,1.9968,1.9968,2.0003,2.0005,2.0006,2.0007,2.0008,2.0007,2.0005,1.9972,0,0,2.0002,2.0001,0,0,0,0,0,0,0,0,1.9972,1.9972,1.9976,1.9978,1.998,1.9986,1.9973,1.9969,2.0003,1.9995,2.0006,2.0008,1.9999,1.9998,1.9997,1.9972,1.9972,2.0002,2.0001,2.0,2.0,0,0,0,0,0,0,0,1.9972,1.9972,1.9963,1.9976,1.9978,1.9986,1.9987,1.9972,1.9989,1.9995,1.9998,1.9999,2.0,1.9998,1.9997,1.9972,2.0002,2.0001,2.0,1.9999,1.9924,1.9923,0,0,0,0,0,0,1.997,1.9971,1.9963,1.9963,1.9979,1.9985,1.9986,1.9983,1.9989,1.9992,1.9998,2.0,1.9999,1.9998,1.9997,1.9961,2.0,1.9999,1.9999,1.9925,1.9924,1.9922,0,0,0,0,0,0,1.997,1.9969,1.9962,1.9968,1.9968,1.9983,1.9979,1.9982,1.998,1.9991,1.9994,1.9993,2.0,1.9999,1.9979,1.9961,1.9999,1.9998,1.9927,1.9925,1.9923,1.9886,0,0,0,0,0,0,1.9971,1.9969,1.9957,1.9968,1.9967,1.9945,1.9978,1.9981,1.9979,1.9982,1.9987,1.9989,2.0001,1.9981,1.9978,1.996,1.9997,1.9928,1.9926,1.9924,1.9889,1.9883,1.9878,0,0,0,0,0,1.9971,1.9944,1.9956,1.9955,1.9953,1.9944,1.9944,1.996,1.9977,1.9965,1.9973,1.9989,1.9964,1.9979,1.9976,1.9957,1.993,1.9927,1.9924,1.9892,1.9885,1.9879,0,0,0,0,0,0,1.9928,1.9946,1.9959,1.9936,1.9939,1.995,1.9935,1.9951,1.9948,1.9951,1.9969,1.997,1.9948,1.9951,1.9967,1.9927,1.995,1.9946,1.9926,1.992,1.9914,1.9914,1.9996,0,0,0,0,0,1.9916,1.9909,1.9924,1.9902,1.9903,1.9919,1.9916,1.9929,1.9931,1.9932,1.9938,1.9938,1.9931,1.9925,1.9919,1.989,1.9892,1.9876,1.9871,1.9866,1.9863,1.985,1.9844,1.9913,1.9913,1.9913,0,0,1.9891,1.99,1.9893,1.9894,1.9897,1.9889,1.992,1.9908,1.9902,1.9929,1.9913,1.9917,1.9919,1.9896,1.9886,1.9897,1.9845,1.9863,1.9859,1.9858,1.9847,1.984,1.9835,1.9911,1.9911,1.9911,0,0,1.9841,1.9846,1.983,1.9834,1.9841,1.9852,1.9848,1.9859,1.9864,1.9848,1.9869,1.9861,1.9847,1.9849,1.9848,1.9803,1.9818,1.98,1.9771,1.9759,1.9754,1.9749,1.9734,1.9729,1.9796,1.9796,1.9796,0,1.9808,1.9797,1.9818,1.9808,1.9808,1.9835,1.9819,1.9821,1.9824,1.9823,1.9836,1.9823,1.9825,1.9804,1.9794,1.9791,1.9788,1.9799,1.9753,1.9748,1.9744,1.9731,1.9725,1.9794,1.9794,1.9795,1.9795,0,1.9758,1.975,1.9736,1.9742,1.974,1.9726,1.9745,1.974,1.9754,1.9764,1.9748,1.9754,1.975,1.9746,1.9757,1.9727,1.9734,1.975,1.9773,1.9735,1.9723,1.9718,1.9791,1.9792,1.9792,1.9793,0,0,1.9678,1.97,1.9694,1.9699,1.971,1.9704,1.9691,1.9691,1.9688,1.9689,1.968,1.967,1.9686,1.9684,1.9697,1.9686,1.9652,1.9703,1.9704,1.9695,1.9621,1.961,1.9603,1.9663,1.9662,1.9661,1.9622,0,1.9632,1.9614,1.9635,1.9612,1.9607,1.9635,1.9624,1.963,1.9639,1.9635,1.9645,1.9638,1.9659,1.9659,1.9649,1.9658,1.9638,1.9661,1.9654,1.9653,1.9653,1.9597,1.9584,1.9546,1.9617,1.9616,1.9615,0,1.9574,1.9578,1.9556,1.9572,1.957,1.9561,1.9564,1.956,1.9567,1.9575,1.9575,1.9592,1.9581,1.9604,1.9589,1.9605,1.9603,1.9608,1.9607,1.9606,1.9632,1.9596,1.9534,1.9529,1.9607,1.9608,1.9609,0,1.9521,1.952,1.9508,1.951,1.9528,1.9521,1.9527,1.9536,1.9536,1.9538,1.9538,1.9537,1.9537,1.9536,1.9552,1.9567,1.9536,1.956,1.9542,1.9542,1.9534,1.9534,1.9472,1.9532,1.9532,1.9532,1.9532,0,1.9467,1.9453,1.9484,1.9477,1.9462,1.9486,1.947,1.9479,1.9487,1.9482,1.9505,1.9498,1.952,1.9516,1.9528,1.9516,1.9514,1.952,1.9524,1.9519,1.9518,1.9518,1.9521,1.953,1.9531,1.9531,1.9531,0,1.9405,1.9425,1.9414,1.9433,1.9438,1.9426,1.9442,1.9436,1.9448,1.9441,1.944,1.9459,1.9456,1.9473,1.9471,1.948,1.9461,1.9468,1.9459,1.9462,1.9444,1.9446,1.9379,1.9373,1.9436,1.9435,1.9435,0,1.937,1.936,1.938,1.9379,1.9386,1.9383,1.9385,1.9408,1.9407,1.9417,1.9409,1.9409,1.941,1.9404,1.9416,1.9416,1.9424,1.9401,1.9424,1.9421,1.9426,1.9426,1.9426,1.9396,1.9396,1.9395,1.9394,0,1.9306,1.9317,1.9319,1.9325,1.9326,1.9331,1.9337,1.9335,1.936,1.9359,1.9358,1.9359,1.936,1.9359,1.9363,1.9368,1.9386,1.9388,1.9384,1.9378,1.9374,1.9378,1.9447,1.9389,1.9389,1.939,1.939,1.939,1.9256,1.9251,1.9265,1.9266,1.9274,1.9281,1.9277,1.9291,1.9291,1.9296,1.9309,1.9306,1.9315,1.9322,1.9327,1.9324,1.9335,1.9329,1.9327,1.9326,1.9324,1.9375,1.9325,1.9325,1.9325,1.9325,1.9325,0,1.9195,1.9206,1.9208,1.9218,1.922,1.9239,1.9248,1.9248,1.9246,1.9254,1.9256,1.9256,1.9257,1.9271,1.9273,1.9269,1.9277,1.9269,1.9269,1.9271,1.9313,1.9317,1.9262,1.9262,1.9262,1.9262,1.9262,1.9262,1.9163,1.9155,1.9169,1.9165,1.9176,1.9176,1.918,1.9186,1.9193,1.9193,1.9195,1.9205,1.9217,1.9221,1.9222,1.9226,1.9226,1.9216,1.9222,1.9261,1.9267,1.9273,1.9277,1.9215,1.9215,1.9181,1.918,1.918]}]]